Stations météo

Publicité
Beauvais, France (7055): Température de l'air & dewpoint: 16.08.2018 01:00:00 - 22.08.2018 01:00:00 (CEST)Beauvais, France (7055): Température de l'air 5cm: 16.08.2018 01:00:00 - 22.08.2018 01:00:00 (CEST)Beauvais, France (7055): Température de l'air -20cm & Température de l'air -100cm: 16.08.2018 01:00:00 - 22.08.2018 01:00:00 (CEST)Beauvais, France (7055): Vitesse du vent & gusts: 16.08.2018 01:00:00 - 22.08.2018 01:00:00 (CEST)Beauvais, France (7055): Direction du vent: 16.08.2018 01:00:00 - 22.08.2018 01:00:00 (CEST)Beauvais, France (7055): reduced air pressure: 16.08.2018 01:00:00 - 22.08.2018 01:00:00 (CEST)Beauvais, France (7055): visibility: 16.08.2018 01:00:00 - 22.08.2018 01:00:00 (CEST)Beauvais, France (7055): Ensoleillement: 16.08.2018 01:00:00 - 22.08.2018 01:00:00 (CEST)Beauvais, France (7055): Quantités de précipitations: 16.08.2018 01:00:00 - 22.08.2018 01:00:00 (CEST)
Date & Time tt [°C] td [°C] tt 5cm [°C] tt -20cm [°C] tt -100cm [°C] ff [km/h] ff [knt] fx [km/h] fx [knt] dd ppp [hPa] vv [km] sd [min] rr [mm]
22.08.2018 01:00:00 17,2 15,7 15,0 19,7 18,0 8 5 9 5 WNW 1019,8 29 0 0,0
22.08.2018 00:00:00 18,4 16,0 15,6 19,7 18,0 5 3 12 6 N 1019,7 33 0 0,0
21.08.2018 23:00:00 20,0 16,8 18,4 19,7 18,0 9 5 19 11 N 1019,6 35 0 0,0
21.08.2018 22:00:00 21,5 17,3 19,8 19,6 18,0 7 4 14 8 N 1019,4 10 0 0,0
21.08.2018 21:00:00 22,1 16,8 20,4 19,6 18,0 6 4 11 6 N 1018,9 20 0 0,0
21.08.2018 20:00:00 23,1 17,1 23,3 19,6 17,9 8 4 13 7 N 1018,7 20 0 0,0
21.08.2018 19:00:00 23,6 17,1 27,0 19,5 17,9 8 4 16 8 NNW 1018,9 25 0 0,0
21.08.2018 18:00:00 23,6 17,1 28,1 19,5 17,9 8 4 13 7 WNW 1019,1 23 0 0,0
21.08.2018 17:00:00 23,6 16,6 29,4 19,5 17,9 9 5 16 9 WNW 1019,6 27 0 0,0
21.08.2018 16:00:00 23,8 16,3 30,4 19,5 17,9 9 5 15 8 W 1019,9 39 0 0,0
21.08.2018 15:00:00 24,3 17,3 28,8 19,4 17,9 6 3 15 8 NNW 1020,2 38 0 0,0
21.08.2018 14:00:00 23,5 16,8 27,7 19,4 17,9 2 1 10 5 NE 1020,6 41 0 0,0
21.08.2018 13:00:00 23,1 16,6 30,0 19,5 17,9 5 3 10 5 W 1021,1 51 6 0,0
21.08.2018 12:00:00 22,8 17,0 28,6 19,5 17,9 3 2 9 5 NNE 1021,4 37 1 0,0
21.08.2018 11:00:00 21,3 17,5 24,5 19,5 17,9 2 1 8 5 NW 1021,6 19 0 0,0
21.08.2018 10:00:00 20,1 17,3 21,8 19,5 17,9 3 2 9 5 WNW 1021,6 29 0 0,0
21.08.2018 09:00:00 19,4 17,2 19,8 19,5 17,9 5 3 8 4 WNW 1021,5 22 0 0,0
21.08.2018 08:00:00 18,7 17,4 18,0 19,5 17,9 3 2 6 4 WNW 1021,5 19 3 0,0
21.08.2018 07:00:00 18,0 16,7 17,9 19,5 17,9 2 1 3 1 N 1021,0 23 0 0,0
21.08.2018 06:00:00 17,9 16,6 18,0 19,6 17,9 2 1 4 2 SE 1021,0 17 0 0,0
21.08.2018 05:00:00 18,1 16,9 17,6 19,5 17,9 2 1 4 2 WSW 1021,1 25 0 0,0
21.08.2018 04:00:00 17,7 16,7 14,1 19,6 17,9 3 2 6 3 NW 1021,5 26 0 0,0
21.08.2018 03:00:00 16,8 15,7 14,0 19,5 17,9 5 3 10 6 WNW 1021,8 25 0 0,0
21.08.2018 02:00:00 18,3 15,7 16,0 19,6 17,9 9 5 11 6 W 1021,6 33 0 0,0
21.08.2018 01:00:00 19,5 16,2 18,8 19,5 17,9 6 4 8 4 NNW 1021,5 35 0 0,0
21.08.2018 00:00:00 19,7 16,0 19,0 19,5 17,9 5 3 8 5 WNW 1021,7 34 0 0,0
20.08.2018 23:00:00 20,2 16,0 19,2 19,5 17,9 6 3 11 6 NW 1021,6 35 0 0,0
20.08.2018 22:00:00 20,8 15,6 18,7 19,4 17,9 6 4 21 11 NNW 1021,4 37 0 0,0
20.08.2018 21:00:00 21,0 15,8 18,3 19,4 17,9 11 6 17 9 NNW 1021,0 19 0 0,0
20.08.2018 20:00:00 23,1 15,9 22,0 19,3 17,9 14 8 22 12 NW 1020,6 33 0 0,0
20.08.2018 19:00:00 24,3 15,5 27,3 19,3 17,9 14 8 23 12 NW 1020,5 33 33 0,0
20.08.2018 18:00:00 24,3 16,3 28,7 19,3 17,9 9 5 25 13 NNW 1020,7 28 23 0,0
20.08.2018 17:00:00 24,5 15,7 33,4 19,3 17,9 17 9 28 15 WNW 1020,9 25 34 0,0
20.08.2018 16:00:00 23,4 16,4 29,7 19,3 17,9 13 7 26 14 WNW 1021,3 27 9 0,0
20.08.2018 15:00:00 23,2 16,3 27,9 19,2 17,9 14 7 22 12 WNW 1021,4 25 11 0,0
20.08.2018 14:00:00 21,0 16,8 24,6 19,2 17,9 14 8 29 16 NW 1021,9 45 0 0,0
20.08.2018 13:00:00 21,4 16,1 27,3 19,3 17,9 10 5 19 11 W 1021,8 20 7 0,0
20.08.2018 12:00:00 20,9 16,5 26,6 19,3 17,9 11 6 22 12 W 1021,9 38 0 0,0
20.08.2018 11:00:00 20,8 16,0 28,2 19,2 17,9 12 7 22 12 W 1021,9 41 3 0,0
20.08.2018 10:00:00 20,1 16,9 21,2 19,3 17,9 15 8 24 13 W 1021,6 32 11 0,0
20.08.2018 09:00:00 19,4 17,0 20,1 19,3 17,9 14 8 23 12 WNW 1021,3 32 0 0,0
20.08.2018 08:00:00 19,2 17,0 19,1 19,3 17,9 9 5 17 9 W 1020,7 39 4 0,0
20.08.2018 07:00:00 19,1 17,1 19,0 19,3 17,9 9 5 19 10 W 1020,6 37 0 0,0
20.08.2018 06:00:00 19,3 17,1 19,0 19,2 17,9 9 5 18 10 WNW 1020,2 38 0 0,0
20.08.2018 05:00:00 19,6 17,2 19,3 19,2 17,9 12 7 21 11 WNW 1020,4 33 0 0,0
20.08.2018 04:00:00 19,9 17,5 19,6 19,2 17,9 7 4 24 13 W 1020,6 18 0 0,0
20.08.2018 03:00:00 20,1 17,5 19,6 19,2 17,9 8 4 19 11 W 1020,8 18 0 0,0
20.08.2018 02:00:00 20,3 17,3 19,8 19,2 17,9 13 7 23 13 W 1021,0 20 0 0,0
20.08.2018 01:00:00 20,6 17,4 19,9 19,2 17,9 9 5 19 11 W 1021,2 23 0 0,0
20.08.2018 00:00:00 20,6 17,2 18,7 19,1 17,9 9 5 17 9 W 1021,2 31 0 0,0
19.08.2018 23:00:00 20,4 16,8 17,7 19,1 17,9 12 6 27 15 W 1021,1 34 0 0,0
19.08.2018 22:00:00 21,1 15,9 17,7 19,0 17,9 13 7 20 11 WNW 1020,8 29 0 0,0
19.08.2018 21:00:00 22,7 15,5 19,8 19,0 17,9 14 8 30 16 W 1020,5 31 0 0,0
19.08.2018 20:00:00 24,9 15,8 22,9 18,9 17,9 14 7 26 14 W 1020,1 34 38 0,0
19.08.2018 19:00:00 25,8 14,6 26,6 18,9 17,9 16 8 27 15 WNW 1020,2 20 60 0,0
19.08.2018 18:00:00 26,3 13,8 31,3 18,8 17,9 15 8 28 15 WNW 1020,4 24 60 0,0
19.08.2018 17:00:00 26,7 13,8 37,5 18,8 17,9 9 5 31 17 W 1020,6 24 60 0,0
19.08.2018 16:00:00 25,3 14,1 41,0 18,7 17,9 14 8 29 15 W 1021,2 23 60 0,0
19.08.2018 15:00:00 24,3 14,1 42,1 18,7 17,9 14 7 26 14 WSW 1021,7 24 60 0,0
19.08.2018 14:00:00 22,5 14,9 45,0 18,7 17,9 16 9 31 17 W 1022,2 24 60 0,0
19.08.2018 13:00:00 21,5 13,7 44,8 18,7 17,9 16 9 29 15 WSW 1022,6 20 60 0,0
19.08.2018 12:00:00 20,2 13,6 39,4 18,8 17,9 16 9 31 17 W 1022,9 23 53 0,0
19.08.2018 11:00:00 19,9 13,8 28,8 18,8 17,9 13 7 26 14 WSW 1023,2 20 53 0,0
19.08.2018 10:00:00 18,8 14,3 29,8 18,8 17,9 13 7 20 11 SW 1023,3 18 57 0,0
19.08.2018 09:00:00 16,8 14,6 15,7 18,9 17,9 5 3 9 5 SSW 1023,3 15 34 0,0
19.08.2018 08:00:00 14,4 13,6 14,6 18,9 17,9 3 2 6 3 SE 1023,3 9 0 0,0
19.08.2018 07:00:00 14,1 13,5 14,4 19,0 17,9 0 0 2 1 N 1023,2 8 0 0,0
19.08.2018 06:00:00 13,7 13,2 13,7 19,0 17,9 0 0 0 0 N 1023,3 7 0 0,0
19.08.2018 05:00:00 13,1 12,6 12,2 19,0 17,9 0 0 2 1 N 1023,6 7 0 0,0
19.08.2018 04:00:00 12,0 11,4 9,2 19,1 17,9 0 0 3 1 N 1023,8 9 0 0,0
19.08.2018 03:00:00 12,0 11,4 9,1 19,1 17,9 0 0 0 0 N 1023,9 0,5 0 0,0
19.08.2018 02:00:00 12,6 11,7 9,5 19,1 17,9 0 0 2 1 N 1024,1 7 0 0,0
19.08.2018 01:00:00 13,1 11,8 10,2 19,1 17,9 0 0 4 2 N 1024,3 18 0 0,0
19.08.2018 00:00:00 14,5 13,0 11,1 19,0 17,9 0 0 2 1 N 1024,3 19 0 0,0
18.08.2018 23:00:00 14,6 12,6 11,6 19,0 17,9 0 0 10 5 N 1024,1 20 0 0,0
18.08.2018 22:00:00 15,9 12,8 12,8 19,0 17,9 6 4 13 7 NW 1023,7 27 0 0,0
18.08.2018 21:00:00 17,7 13,6 15,4 19,0 17,9 9 5 14 7 NW 1023,3 26 0 0,0
18.08.2018 20:00:00 19,3 13,5 18,9 18,9 17,9 12 7 25 13 WNW 1023,1 23 0 0,0
18.08.2018 19:00:00 20,4 12,9 22,2 18,9 17,9 16 9 23 12 NW 1023,0 30 4 0,0
18.08.2018 18:00:00 21,6 13,0 28,0 18,9 17,9 14 8 31 17 WNW 1023,1 20 43 0,0
18.08.2018 17:00:00 21,9 13,0 34,4 18,8 17,9 15 8 27 15 NW 1023,3 20 60 0,0
18.08.2018 16:00:00 21,9 12,7 39,0 18,8 17,9 18 10 26 14 WNW 1023,4 20 55 0,0
18.08.2018 15:00:00 21,6 12,7 36,7 18,8 17,9 13 7 28 15 W 1023,8 17 48 0,0
18.08.2018 14:00:00 21,0 12,9 33,7 18,9 17,9 14 7 25 14 WNW 1024,1 16 14 0,0
18.08.2018 13:00:00 20,1 12,1 31,4 18,9 17,9 10 5 24 13 W 1024,3 28 14 0,0
18.08.2018 12:00:00 19,6 12,4 31,1 18,9 17,9 11 6 22 12 W 1024,3 19 31 0,0
18.08.2018 11:00:00 18,9 12,9 37,3 19,0 17,9 13 7 23 12 W 1024,4 19 50 0,0
18.08.2018 10:00:00 17,4 13,3 30,9 19,1 17,9 13 7 22 12 W 1024,1 30 60 0,0
18.08.2018 09:00:00 14,5 12,7 17,0 19,1 17,9 6 3 11 6 W 1024,2 20 60 0,2
18.08.2018 08:00:00 12,5 12,2 8,0 19,2 17,9 0 0 2 1 N 1024,1 31 31 0,0
18.08.2018 07:00:00 9,5 8,9 7,4 19,3 17,9 0 0 4 2 N 1023,9 20 0 0,2
18.08.2018 06:00:00 9,4 8,6 7,1 19,3 17,9 0 0 3 2 N 1023,7 30 0 0,0
18.08.2018 05:00:00 9,5 8,7 7,1 19,4 17,9 0 0 3 1 N 1023,8 20 0 0,0
18.08.2018 04:00:00 10,2 9,3 7,5 19,4 17,9 0 0 4 2 N 1023,8 26 0 0,0
18.08.2018 03:00:00 10,4 9,3 8,1 19,4 17,9 3 2 10 5 E 1023,9 37 0 0,0
18.08.2018 02:00:00 11,2 9,9 8,8 19,4 17,9 9 5 10 5 NW 1024,0 30 0 0,0
18.08.2018 01:00:00 11,6 10,0 8,8 19,4 17,9 6 3 9 5 WNW 1023,8 38 0 0,0
18.08.2018 00:00:00 12,3 10,2 9,1 19,4 17,9 8 4 10 5 WNW 1023,8 44 0 0,0
17.08.2018 23:00:00 13,4 10,7 9,6 19,4 17,9 5 3 10 6 WNW 1023,4 48 0 0,0
17.08.2018 22:00:00 15,3 10,5 11,8 19,4 17,9 8 4 23 12 NNW 1023,0 20 0 0,0
17.08.2018 21:00:00 17,9 11,0 15,9 19,3 17,9 16 9 31 17 NNW 1022,2 51 1 0,0
17.08.2018 20:00:00 20,1 11,3 18,9 19,3 17,9 20 11 29 16 NW 1021,3 35 44 0,0
17.08.2018 19:00:00 21,6 10,7 23,3 19,2 17,9 17 9 28 15 WNW 1020,8 16 60 0,0
17.08.2018 18:00:00 22,7 11,1 28,8 19,2 17,9 14 8 29 16 NW 1020,4 29 60 0,0
17.08.2018 17:00:00 22,9 10,3 35,5 19,2 17,9 13 7 35 19 NW 1020,5 29 57 0,0
17.08.2018 16:00:00 22,4 11,2 32,7 19,2 17,9 15 8 32 17 NW 1020,8 34 51 0,0
17.08.2018 15:00:00 22,8 11,5 43,6 19,2 17,9 14 8 29 16 WNW 1020,9 20 58 0,0
17.08.2018 14:00:00 21,7 11,4 32,6 19,2 17,9 10 5 34 18 WNW 1020,9 50 40 0,0
17.08.2018 13:00:00 21,3 12,2 30,9 19,2 17,9 17 9 24 13 NW 1020,8 20 37 0,0
17.08.2018 12:00:00 20,5 11,9 30,5 19,2 17,8 10 6 22 12 NNW 1020,7 33 39 0,0
17.08.2018 11:00:00 19,1 12,8 36,9 19,2 17,9 12 6 22 12 WNW 1020,4 37 52 0,0
17.08.2018 10:00:00 17,7 14,8 29,4 19,3 17,9 14 8 22 12 NW 1020,1 20 60 0,0
17.08.2018 09:00:00 15,4 14,1 17,8 19,3 17,9 13 7 17 9 WNW 1019,6 16 60 0,0
17.08.2018 08:00:00 13,5 13,0 11,2 19,3 17,8 7 4 11 6 WNW 1019,3 16 13 0,0
17.08.2018 07:00:00 13,0 12,2 10,5 19,3 17,9 9 5 13 7 W 1018,7 19 0 0,0
17.08.2018 06:00:00 13,4 12,3 11,8 19,3 17,9 6 4 9 5 WNW 1017,9 32 0 0,0
17.08.2018 05:00:00 14,4 12,9 14,1 19,4 17,9 6 3 14 7 NNW 1017,4 37 0 0,0
17.08.2018 04:00:00 14,6 12,8 14,6 19,3 17,8 10 5 26 14 NW 1017,6 41 0 0,4
17.08.2018 03:00:00 16,2 14,6 16,3 19,3 17,8 11 6 21 11 NW 1016,8 46 0 0,0
17.08.2018 02:00:00 16,9 15,2 17,0 19,3 17,9 11 6 16 9 NW 1016,7 34 0 0,0
17.08.2018 01:00:00 17,4 14,9 17,2 19,3 17,9 12 6 27 15 N 1016,6 51 0 0,0
17.08.2018 00:00:00 18,0 14,7 17,9 19,2 17,9 17 9 33 18 NNW 1016,8 60 0 0,0
16.08.2018 23:00:00 18,5 15,2 18,0 19,2 17,8 15 8 29 15 NNW 1015,7 60 0 0,0
16.08.2018 22:00:00 18,6 15,1 18,1 19,1 17,9 21 11 43 23 NW 1015,5 59 0 0,0
16.08.2018 21:00:00 20,3 15,5 20,1 19,0 17,8 27 15 39 21 NNW 1014,7 55 0 0,0
16.08.2018 20:00:00 22,1 15,4 21,5 19,0 17,9 23 12 34 19 NNW 1014,0 22 0 0,0
16.08.2018 19:00:00 23,7 16,2 24,6 18,9 17,9 24 13 34 18 N 1013,7 21 53 0,0
16.08.2018 18:00:00 25,2 17,1 27,2 18,8 17,9 25 13 41 22 NNW 1013,7 33 34 0,0
16.08.2018 17:00:00 27,2 15,2 35,1 18,8 17,8 12 6 23 12 NW 1013,6 47 45 0,0
16.08.2018 16:00:00 28,1 15,0 43,0 18,8 17,9 7 4 27 15 WSW 1013,8 32 60 0,0
16.08.2018 15:00:00 27,2 15,9 44,0 18,8 17,9 7 4 23 13 WSW 1014,2 38 60 0,0
16.08.2018 14:00:00 25,6 15,6 40,8 18,8 17,9 13 7 28 15 SSW 1014,8 39 55 0,0
16.08.2018 13:00:00 24,6 15,8 35,4 18,8 17,9 13 7 29 16 S 1015,0 28 60 0,0
16.08.2018 12:00:00 22,5 16,3 34,3 18,8 17,8 10 5 16 9 SE 1015,7 27 58 0,0
16.08.2018 11:00:00 20,2 15,4 30,6 18,9 17,9 7 4 11 6 ESE 1016,5 9 60 0,0
16.08.2018 10:00:00 17,2 16,2 24,2 18,9 17,9 4 2 8 4 ESE 1016,8 6 60 0,0
16.08.2018 09:00:00 14,9 14,6 16,4 19,0 17,9 0 0 0 0 N 1017,1 3,3 52 0,0
16.08.2018 08:00:00 12,6 12,3 11,5 19,0 17,9 0 0 3 1 N 1017,5 0,1 30 0,0
16.08.2018 07:00:00 11,6 11,3 11,2 19,0 17,9 0 0 3 2 N 1017,8 0,1 0 0,0
16.08.2018 06:00:00 11,9 11,6 10,1 19,1 17,9 0 0 0 0 N 1017,9 0,1 0 0,2
16.08.2018 05:00:00 11,5 10,9 9,9 19,1 17,9 0 0 0 0 N 1018,2 0,3 0 0,0
16.08.2018 04:00:00 12,3 11,7 9,9 19,1 17,9 0 0 0 0 N 1018,5 5 0 0,0
16.08.2018 03:00:00 12,6 11,8 10,7 19,1 17,9 0 0 8 4 N 1018,9 6 0 0,0
16.08.2018 02:00:00 13,4 12,5 11,3 19,1 17,9 0 0 4 2 N 1019,3 7 0 0,0
16.08.2018 01:00:00 14,1 12,8 11,5 19,1 17,9 0 0 3 1 N 1019,4 10 0 0,0

tt = Température de l'air
td = dewpoint
tt 5cm = Température de l'air 5cm
tt -20cm = Température de l'air -20cm
tt -100cm = Température de l'air -100cm
ff = Vitesse du vent
fx = gusts
dd = Direction du vent
ppp = reduced air pressure
vv = visibility
sd = Ensoleillement
rr = Quantités de précipitations

stations d'obs. à proximité